Find Starlink 30519

NORAD ID: 57985 Int'l Des: 2023-151 Owner: SPXS Country: US Constellation: starlink operational
LEOCIRCULAR

当前视图

正在加载3D地球...

About Starlink 30519

Starlink 30519 (NORAD 57985) is a starlink constellation satellite (v2 mini) launched Sep 30, 2023 by SPXS of US. It operates in LEO, CIRCULAR orbit with a mass of 730.00 kg.

关于 Starlink 30519

正在加载描述...

即将过境

Passes for default location (London). Set your location on the main map for personalized predictions.

高度历史

Loading altitude history...

两行轨道根数

1 57985U 23151X 26170.18540541 .00000779 00000-0 37820-4 0 9997
2 57985 43.0024 137.6732 0001329 268.5583 91.5117 15.27577185151054
Epoch: Jun 19, 2026 • Age: 4 hours

当前状态

高度 490.4 km
速度 7.62 km/s
星下点 -29.85°S, 41.79°W
发射日期 Sep 30, 2023
运行时间 2.7 years
类型 internet

技术详情

分类 Payload
质量 730.00 kg
干质量 700.00 kg
总质量 730.00 kg
长度 0.30 m
直径 4.10 m
跨度 29.00 m
形状 Box + pan
制造商 SPXS
平台类型 Starlink V2M
阶段状态 In Orbit
所有者/国家 SPXS/US

Most Searched